Probability
6 3 10 13 10 6 6 10 10 13 13 13 13 10 10 6 6 3 3 3 3 3 3 3 6 6 0 3 3 0 6 3 0 0 0 0 0 3 0 0 0 0 0
3 3 3 6 6 6 6 10 10 10 13 16 10 10 10 3 3 3 3 0 0 0 0 0 3 0 3 3 6 0 0 0 0 0 0 0 0 0 0 0 0 0 0
6 6 6 6 6 3 6 6 6 6 13 13 3 3 3 3 0 3 3 0 0 0 0 0 0 0 0 3 3 3 0 0 0 0 0 0 0 0 0 0 0 0 0
3 6 10 10 10 6 3 0 10 10 10 10 10 3 3 6 3 3 0 0 0 0 0 0 0 0 0 3 3 3 3 0 0 0 0 0 0 0 0 0 0 0 0
3 10 13 13 6 6 6 6 6 10 6 10 10 6 3 3 0 0 0 0 0 0 0 0 0 0 3 3 3 3 3 0 0 0 0 0 0 0 0 0 0 0 0
0 6 10 13 13 16 13 6 3 6 6 10 10 10 6 3 3 3 3 0 0 0 0 0 0 0 0 3 3 3 6 6 0 0 0 0 0 0 0 0 0 0 0
0 6 10 10 16 16 10 3 6 10 6 6 6 10 10 6 3 3 3 3 3 3 3 3 0 0 0 0 3 6 6 6 3 0 0 0 0 0 0 0 0 0 0
3 3 10 10 13 10 10 0 6 6 6 3 3 3 6 0 0 0 0 0 0 0 0 0 3 3 3 3 3 3 3 6 6 3 0 0 0 0 0 0 0 0 0
10 10 6 6 10 16 10 6 0 6 3 3 6 3 3 0 0 0 0 0 0 0 0 0 0 0 3 3 3 3 3 6 6 3 3 0 0 0 0 0 0 0 0
6 10 6 6 6 10 13 3 3 3 0 3 3 3 3 0 0 0 0 0 0 0 0 0 0 0 0 0 3 3 3 3 3 3 3 3 3 0 0 0 0 0 0
6 10 6 10 10 3 3 0 0 0 0 3 3 3 3 3 0 0 0 0 0 0 0 0 0 0 0 0 0 3 3 3 3 3 3 3 3 3 3 3 0 0 0
6 10 10 6 6 0 0 0 0 0 0 0 0 3 3 0 0 0 0 0 0 0 0 0 0 0 0 0 0 0 0 0 0 3 3 3 3 3 3 3 3 0 0
6 6 10 0 0 0 0 0 0 0 0 3 0 0 0 0 0 0 0 0 0 0 0 0 0 0 0 0 0 0 0 0 0 0 3 3 3 3 3 3 3 3 0
6 6 6 0 0 0 0 0 0 0 0 0 0 0 0 0 0 0 0 0 0 0 0 0 0 0 0 0 0 0 0 0 0 0 0 0 3 3 3 3 3 3 3
3 6 3 3 0 0 0 0 0 0 0 3 3 0 0 0 0 0 0 0 0 0 0 0 0 0 0 0 0 0 0 0 0 0 0 0 0 0 3 3 3 3 3
6 6 3 3 3 0 0 0 0 0 0 3 3 3 0 0 0 0 0 0 0 3 3 3 3 3 3 3 0 0 0 0 0 0 0 0 0 0 0 0 0 0 0
6 6 6 3 3 3 3 0 0 3 3 3 6 3 0 0 0 3 3 3 3 3 3 3 3 3 3 3 0 0 0 0 0 0 0 0 0 0 0 0 0 0 0
6 6 10 3 3 3 0 0 0 3 3 3 0 0 3 3 3 3 3 3 3 3 3 3 3 3 3 3 0 0 0 0 0 0 0 0 0 0 0 0 0 3 3
3 0 3 3 0 0 0 0 0 0 0 0 0 0 0 0 3 3 3 3 3 3 3 3 3 3 3 0 0 0 0 0 0 0 0 0 0 0 0 0 0 0 3
3 0 0 0 0 0 0 0 0 0 0 0 0 0 0 0 3 3 3 3 3 3 3 3 3 3 3 0 0 0 0 0 0 0 0 0 0 0 0 0 0 0 0
0 0 0 0 0 0 0 0 0 0 0 0 0 0 0 0 3 3 3 3 3 3 3 3 3 3 0 0 0 0 0 0 0 0 0 0 0 0 0 0 0 0 0
0 0 0 0 0 0 0 0 0 0 0 0 0 0 0 0 0 3 3 3 0 0 0 0 0 0 0 0 0 0 0 0 0 0 0 0 0 0 0 0 0 0 0
0 0 0 3 0 0 0 0 0 0 0 0 0 0 0 0 0 0 0 0 0 0 0 0 0 0 0 0 0 0 0 0 0 0 0 0 0 0 0 0 0 0 0
0 0 0 3 3 0 0 0 0 0 0 0 0 0 0 0 0 0 0 0 0 0 0 0 0 0 0 0 0 0 0 0 0 0 0 0 0 0 0 0 0 0 0
0 0 0 0 3 3 3 3 0 0 0 0 0 0 0 0 0 0 0 0 0 0 0 0 0 0 0 0 0 0 0 0 0 0 0 0 0 0 0 0 0 0 0
0 0 0 0 0 0 3 0 0 0 0 0 0 0 0 0 0 0 0 0 0 0 0 0 0 0 0 0 0 0 0 0 0 0 0 0 0 0 0 0 0 0 0
Height
5850 5849 5848 5847 5846 5845 5844 5843 5842 5842 5841 5840 5839 5838 5838 5838 5837 5837 5837 5836 5836 5836 5836 5836 5836 5835 5835 5835 5835 5835 5835 5834 5834 5835 5835 5835 5834 5834 5834 5834 5833 5833 5833
5847 5846 5845 5844 5843 5842 5841 5840 5839 5838 5838 5837 5836 5835 5835 5834 5834 5834 5833 5833 5832 5832 5832 5832 5832 5831 5831 5831 5831 5831 5831 5831 5831 5831 5831 5831 5832 5831 5831 5830 5830 5830 5830
5845 5843 5842 5841 5840 5840 5838 5837 5836 5835 5834 5833 5833 5832 5831 5831 5830 5830 5830 5829 5829 5828 5828 5828 5828 5827 5827 5827 5827 5828 5828 5828 5827 5827 5828 5828 5828 5827 5827 5827 5827 5827 5826
5841 5840 5839 5838 5837 5836 5835 5834 5832 5831 5830 5830 5829 5828 5828 5827 5827 5826 5826 5825 5825 5824 5824 5824 5824 5824 5824 5823 5823 5824 5824 5824 5824 5823 5823 5824 5824 5824 5824 5824 5823 5823 5823
5838 5837 5836 5835 5833 5833 5831 5830 5829 5828 5827 5826 5825 5824 5823 5823 5822 5822 5822 5821 5820 5820 5820 5820 5820 5820 5820 5820 5820 5820 5820 5820 5820 5820 5819 5820 5820 5820 5820 5820 5819 5819 5819
5836 5834 5833 5832 5831 5829 5828 5826 5825 5824 5823 5822 5821 5820 5819 5819 5818 5818 5817 5817 5816 5816 5816 5816 5816 5816 5816 5816 5816 5816 5816 5815 5815 5815 5816 5815 5815 5815 5815 5816 5815 5815 5815
5832 5832 5830 5829 5827 5826 5824 5823 5821 5820 5819 5818 5817 5816 5815 5814 5814 5813 5813 5812 5812 5812 5812 5811 5811 5811 5811 5812 5812 5812 5812 5812 5811 5811 5811 5811 5811 5811 5811 5811 5811 5811 5810
5829 5828 5827 5825 5823 5822 5820 5819 5818 5816 5815 5814 5813 5812 5811 5810 5810 5809 5809 5808 5808 5808 5807 5807 5807 5807 5807 5807 5807 5807 5808 5807 5807 5807 5807 5807 5807 5806 5806 5807 5806 5806 5806
5825 5824 5823 5821 5820 5818 5817 5815 5814 5812 5811 5810 5809 5807 5807 5806 5805 5805 5804 5804 5804 5803 5803 5802 5802 5802 5802 5802 5803 5803 5803 5803 5803 5803 5802 5802 5802 5802 5802 5802 5801 5802 5801
5822 5821 5819 5818 5816 5814 5812 5811 5809 5808 5807 5806 5805 5804 5803 5802 5801 5800 5800 5799 5799 5798 5798 5798 5798 5798 5798 5798 5798 5798 5798 5798 5798 5798 5798 5797 5797 5797 5797 5796 5796 5796 5796
5818 5816 5815 5813 5812 5810 5808 5807 5805 5804 5803 5801 5800 5799 5798 5798 5797 5796 5795 5794 5794 5793 5793 5793 5793 5793 5793 5793 5793 5793 5793 5793 5793 5793 5792 5792 5792 5792 5792 5791 5791 5790 5790
5814 5812 5811 5809 5807 5805 5804 5802 5801 5800 5798 5797 5796 5795 5794 5793 5792 5792 5791 5790 5789 5788 5788 5788 5788 5788 5788 5788 5788 5788 5787 5787 5787 5787 5787 5787 5787 5787 5786 5786 5785 5785 5784
5810 5808 5806 5805 5803 5801 5800 5798 5797 5795 5794 5793 5792 5790 5789 5789 5788 5787 5786 5785 5784 5783 5783 5783 5783 5783 5783 5782 5782 5782 5782 5782 5781 5781 5781 5781 5781 5781 5781 5780 5780 5779 5779
5805 5803 5802 5800 5799 5797 5796 5794 5793 5791 5790 5788 5787 5786 5785 5784 5783 5782 5781 5779 5779 5778 5778 5777 5777 5777 5777 5777 5776 5776 5776 5776 5775 5775 5775 5775 5775 5775 5775 5774 5774 5774 5773
5800 5799 5797 5796 5794 5793 5791 5789 5788 5786 5785 5783 5782 5781 5780 5778 5777 5776 5775 5774 5774 5773 5772 5772 5772 5771 5771 5771 5770 5770 5770 5770 5769 5769 5769 5769 5769 5769 5769 5768 5768 5768 5767
5795 5794 5792 5791 5789 5788 5786 5785 5783 5781 5780 5778 5777 5775 5774 5773 5772 5771 5770 5769 5768 5767 5767 5766 5766 5765 5765 5765 5764 5764 5764 5763 5763 5763 5762 5762 5762 5762 5762 5762 5762 5762 5761
5790 5789 5787 5786 5784 5783 5781 5779 5778 5776 5774 5773 5771 5770 5769 5768 5766 5766 5765 5764 5763 5762 5761 5761 5760 5760 5759 5759 5758 5758 5757 5757 5756 5756 5756 5756 5756 5756 5756 5755 5755 5755 5754
5785 5783 5782 5780 5779 5777 5776 5774 5772 5770 5769 5767 5765 5764 5763 5762 5761 5760 5759 5758 5757 5757 5756 5755 5755 5754 5754 5753 5752 5751 5751 5750 5750 5749 5749 5749 5749 5749 5749 5749 5748 5748 5747
5779 5777 5776 5774 5773 5771 5770 5768 5766 5765 5763 5762 5760 5758 5757 5756 5756 5755 5754 5753 5752 5751 5750 5749 5749 5748 5748 5746 5745 5744 5744 5743 5743 5743 5742 5742 5742 5742 5741 5741 5741 5740 5740
5772 5771 5770 5768 5767 5765 5763 5762 5760 5759 5757 5756 5754 5753 5752 5751 5750 5749 5748 5747 5746 5745 5744 5743 5743 5742 5741 5740 5739 5738 5737 5737 5737 5736 5736 5735 5735 5734 5733 5733 5733 5733 5732
5765 5764 5763 5762 5760 5759 5757 5756 5754 5753 5751 5750 5749 5747 5746 5745 5744 5743 5742 5741 5740 5739 5738 5737 5737 5736 5735 5734 5733 5731 5731 5730 5730 5729 5729 5728 5727 5726 5726 5725 5725 5724 5724
5758 5757 5756 5755 5754 5752 5750 5749 5748 5746 5745 5744 5743 5741 5740 5738 5737 5736 5735 5734 5733 5732 5731 5730 5730 5729 5728 5727 5726 5725 5724 5723 5722 5722 5721 5720 5719 5718 5717 5717 5716 5716 5715
5751 5750 5749 5748 5747 5745 5743 5742 5741 5740 5738 5737 5736 5735 5734 5732 5731 5730 5728 5727 5726 5725 5724 5723 5722 5722 5721 5720 5719 5718 5717 5716 5715 5714 5713 5712 5711 5710 5709 5709 5708 5707 5706
5743 5742 5741 5740 5739 5738 5736 5735 5734 5733 5732 5731 5729 5728 5727 5726 5725 5723 5722 5721 5719 5718 5717 5716 5715 5715 5714 5713 5712 5711 5709 5708 5707 5706 5705 5704 5703 5702 5701 5700 5699 5698 5697
5735 5734 5734 5733 5732 5730 5729 5728 5727 5726 5725 5724 5723 5721 5720 5719 5718 5717 5715 5714 5713 5711 5710 5709 5708 5707 5706 5705 5704 5703 5701 5700 5699 5698 5697 5695 5694 5693 5693 5692 5691 5690 5688
5727 5726 5725 5725 5724 5723 5722 5720 5719 5718 5717 5717 5716 5715 5714 5712 5711 5710 5709 5707 5706 5704 5703 5701 5700 5699 5698 5697 5696 5694 5693 5691 5690 5689 5688 5687 5686 5685 5684 5683 5682 5681 5680
Wind_Speed
16 15 15 15 15 15 15 16 15 15 14 14 14 13 13 13 13 14 13 14 14 14 15 15 16 16 16 16 16 15 15 15 14 14 14 14 13 13 13 13 13 13 14
16 16 16 16 16 15 15 15 15 15 15 14 14 13 13 13 14 14 14 15 15 14 14 15 15 16 16 16 15 15 15 14 14 14 14 15 14 14 14 14 14 14 14
16 16 15 16 16 16 16 15 15 15 15 14 14 14 14 14 15 15 15 15 15 15 15 15 15 15 15 15 15 15 14 15 14 14 14 15 15 15 15 14 15 15 15
17 16 15 16 17 17 16 16 16 16 15 15 15 15 15 15 15 15 16 16 16 16 16 15 15 15 15 15 15 15 15 16 16 15 14 15 16 15 15 15 15 15 15
17 17 17 17 17 17 17 16 16 16 16 15 15 16 16 16 16 16 16 17 17 17 16 16 16 16 15 15 15 16 16 16 16 16 16 16 16 16 16 15 15 15 16
17 17 17 17 17 17 17 17 17 17 17 17 16 17 17 17 16 16 16 17 17 17 16 16 16 16 16 16 16 16 16 16 16 17 17 17 17 17 16 16 16 15 16
17 16 17 17 17 17 17 17 17 17 17 17 17 17 17 16 16 16 16 16 16 16 17 17 17 17 17 17 17 16 17 17 16 17 17 17 17 18 17 17 17 17 16
16 16 16 16 16 17 16 16 16 16 16 17 17 17 16 16 16 16 16 16 16 17 17 17 18 18 17 17 17 17 17 17 17 16 17 17 17 17 17 17 17 17 17
17 17 17 17 17 17 17 16 16 16 16 16 16 16 16 16 16 16 16 16 16 17 17 17 17 18 17 17 17 17 18 18 17 17 17 18 17 17 18 18 18 18 17
18 18 18 18 18 17 17 17 16 16 16 17 17 17 17 17 16 17 17 17 17 17 17 17 17 18 18 17 18 18 18 18 18 18 18 18 18 18 18 18 18 18 18
19 18 18 18 18 18 18 17 17 17 17 17 17 17 17 17 17 18 18 18 17 17 17 18 17 17 18 18 18 18 18 19 19 19 19 18 18 18 19 19 19 19 19
19 19 19 18 18 18 18 17 17 17 17 17 17 17 17 18 18 18 18 18 18 19 19 18 18 18 18 18 18 19 19 19 20 20 20 19 19 19 19 19 20 19 19
20 19 19 18 18 18 17 17 17 17 18 18 18 18 18 18 18 18 19 19 19 19 19 19 19 19 19 19 19 19 20 20 20 20 20 20 20 20 20 20 20 20 19
21 20 19 18 18 18 18 18 18 18 18 19 19 19 19 19 19 19 19 19 19 19 19 18 19 19 19 19 20 20 20 20 20 20 20 20 20 20 20 20 20 20 20
21 20 20 20 19 19 19 19 19 20 20 20 19 19 19 20 20 20 19 19 18 18 18 19 19 19 20 20 20 20 21 21 21 20 20 20 20 21 21 21 21 21 21
21 21 21 21 20 20 19 20 20 20 20 20 20 20 20 20 20 19 19 19 18 18 19 19 20 20 20 20 20 20 21 21 21 20 20 20 21 21 21 21 22 22 22
22 22 22 22 21 21 21 21 21 21 20 20 20 20 21 20 20 19 19 19 19 19 19 20 19 20 20 21 21 21 21 21 21 21 21 21 21 21 22 22 23 23 23
23 23 23 23 22 22 22 21 22 22 21 21 20 20 20 20 20 20 20 20 20 20 20 20 20 20 21 21 22 22 22 23 23 22 22 22 22 22 23 23 24 24 23
24 24 24 23 23 23 23 23 22 22 21 21 21 21 21 20 20 20 21 21 21 21 21 20 21 21 21 22 22 22 22 22 22 22 23 23 23 24 24 25 24 24 24
25 25 25 25 24 24 24 24 23 23 22 21 21 21 21 20 20 21 21 21 21 21 21 21 22 22 22 22 22 23 23 22 22 22 22 23 24 24 25 25 25 24 25
26 26 26 26 26 25 25 24 24 23 23 22 22 22 22 22 22 22 22 22 22 22 22 22 22 23 23 23 23 23 23 23 23 23 23 24 25 25 26 26 26 26 26
27 27 27 27 26 26 26 25 25 24 24 23 23 22 22 22 22 22 22 22 22 23 23 23 23 23 23 23 23 22 23 24 23 24 24 24 24 25 26 27 27 27 27
28 27 27 27 27 27 26 26 25 25 24 24 24 23 23 23 23 23 23 23 23 23 24 23 24 23 23 23 24 24 24 24 24 25 25 25 25 26 27 27 27 27 27
28 27 27 27 26 26 26 26 26 25 25 25 24 24 24 23 23 23 23 23 23 24 24 24 24 24 23 23 24 24 24 25 25 25 25 25 26 26 26 26 27 27 27
29 28 28 27 27 27 26 26 26 26 25 25 25 25 25 24 23 24 24 24 24 24 24 25 25 25 25 25 26 26 26 26 26 26 26 26 25 26 26 27 27 27 27
30 29 29 28 28 28 27 27 26 26 26 26 25 25 25 25 24 24 24 23 23 24 24 24 25 25 26 27 26 26 26 26 26 26 27 26 26 26 26 26 27 28 28
Wind_Direction
299 299 300 301 302 302 302 301 298 297 299 299 297 294 291 290 288 288 284 283 284 284 278 278 279 282 282 280 278 282 285 286 285 283 283 283 283 283 284 285 286 286 286
299 300 300 301 303 302 303 300 297 296 297 297 296 294 291 288 287 286 285 284 285 286 285 280 280 281 281 279 279 282 284 285 283 280 281 281 280 283 284 285 286 287 288
300 299 299 300 302 303 301 298 297 296 295 293 293 292 290 290 287 285 285 285 284 283 284 282 279 280 280 281 278 277 279 281 281 277 278 279 280 282 286 288 287 286 286
300 299 298 300 303 302 300 297 296 296 293 291 291 291 290 289 288 286 286 286 284 282 281 281 282 279 279 280 278 277 278 279 280 279 278 278 279 281 283 284 285 287 287
299 299 297 300 303 301 298 297 296 293 291 290 291 292 291 289 287 288 288 287 285 283 280 281 282 280 280 282 283 282 280 279 278 278 280 281 280 280 281 281 282 283 285
299 298 299 298 300 298 296 296 295 293 292 291 291 293 293 291 289 289 289 288 285 284 282 281 282 281 280 282 282 281 281 282 280 280 281 281 280 281 280 280 281 283 285
297 297 298 299 299 299 297 296 294 293 292 291 290 291 291 291 289 289 289 288 286 285 284 284 283 281 279 280 280 281 280 283 282 281 281 282 282 281 279 278 278 281 285
295 297 298 299 301 301 299 297 297 296 293 292 291 290 290 290 289 289 288 287 286 286 285 285 284 282 279 279 278 279 281 283 283 282 282 282 282 282 280 280 281 283 286
296 297 296 299 300 299 298 299 300 298 295 293 291 290 290 289 288 289 288 287 287 287 285 283 283 282 280 278 277 277 279 281 282 284 283 281 280 281 281 281 281 282 285
297 295 294 296 297 298 298 299 299 298 297 295 291 289 289 288 290 290 289 289 289 286 285 284 282 281 280 279 278 277 278 279 281 283 283 281 280 280 282 283 283 283 284
294 293 294 296 298 298 298 298 298 298 297 295 292 290 288 288 290 293 290 289 287 286 285 283 282 281 281 281 280 280 280 279 279 280 281 280 279 281 282 283 283 284 284
295 294 294 296 298 297 296 296 296 297 297 297 294 292 289 289 290 290 290 289 287 286 285 282 280 282 281 280 280 281 281 279 277 278 279 279 279 280 281 283 283 284 283
294 293 293 295 297 299 297 297 297 297 297 296 294 291 290 290 291 290 289 289 286 285 285 282 279 280 281 280 280 281 281 280 278 277 276 276 277 278 280 281 282 283 283
291 292 293 293 295 296 296 296 296 297 297 296 295 292 289 289 290 291 289 288 287 285 283 281 280 280 281 280 281 281 281 280 280 277 275 275 278 279 279 279 281 282 282
289 291 293 294 295 294 292 293 296 296 296 294 293 291 289 289 290 292 290 288 287 286 284 283 282 282 284 282 282 281 282 281 279 278 276 274 276 278 279 280 280 280 280
288 290 292 293 294 294 293 293 294 295 296 294 291 290 290 289 290 292 290 288 286 286 285 284 284 283 283 284 284 283 282 281 279 278 277 277 276 276 277 278 279 281 282
286 288 290 291 291 291 293 293 294 295 295 295 291 289 289 288 288 289 290 287 286 287 287 284 285 284 283 284 284 283 283 282 280 278 278 277 278 277 276 277 279 282 283
285 287 289 289 289 290 291 292 294 294 294 294 293 289 288 286 286 287 289 289 288 287 286 285 285 285 285 285 284 284 285 281 281 280 278 276 276 276 277 277 279 280 281
283 285 287 288 289 290 290 290 292 293 293 293 293 290 289 287 285 286 286 287 287 286 285 284 285 285 286 285 284 285 286 284 283 282 279 276 276 277 278 277 278 278 278
282 283 285 287 288 289 289 289 290 291 293 292 291 291 290 288 287 287 286 286 286 286 285 284 284 284 285 285 285 286 285 284 284 283 280 278 277 278 278 278 277 277 278
282 283 285 287 288 288 288 288 288 289 291 291 290 290 290 288 287 287 286 286 285 285 285 285 284 284 285 287 288 287 286 285 283 283 281 280 277 279 279 278 277 278 279
280 281 283 284 286 287 287 287 287 287 288 289 289 289 289 290 287 286 286 286 285 285 286 285 284 284 285 287 287 287 287 286 285 284 282 280 280 281 280 279 278 278 279
281 282 283 284 284 285 286 286 286 285 286 287 288 288 289 288 287 287 286 285 286 286 287 286 286 283 284 285 285 287 287 286 285 285 284 281 281 280 280 281 280 279 279
281 281 282 283 284 285 285 285 284 283 284 285 286 287 288 287 286 286 287 286 286 287 288 287 286 285 285 286 287 287 287 286 287 286 285 283 280 279 279 281 281 280 280
280 281 281 282 283 283 283 283 283 283 284 285 285 287 288 287 288 287 287 287 285 287 288 288 287 286 287 287 287 286 287 288 288 287 286 286 283 282 281 280 281 282 282
279 280 280 281 282 283 284 285 284 283 283 284 285 286 288 288 289 288 288 287 287 287 289 288 288 287 288 289 288 288 287 287 288 288 287 286 284 282 281 282 282 282 283